Location: Newark
(22.3060°N, 114.2134°E)
Time: 07:15:54
(UTC+00:00)

Vanguard 3 - Visible Passes

Search period start: 24 July 2021 00:00
Search period end: 03 August 2021 00:00
Orbit: 508 x 3261 km, 33.4° (Epoch: 23 July)

Date Brightness Start Highest point End Pass type
(mag) Time Alt. Az. Time Alt. Az. Time Alt. Az.
24 Jul 10.3 12:59:32 10° W 13:18:50 65° NNW 13:36:40 10° ENE visible
24 Jul 10.0 15:18:46 10° WNW 15:38:18 58° N 15:50:41 14° E visible
24 Jul 9.0 17:38:12 10° WNW 18:02:11 26° ESE 18:05:02 10° ESE visible
24 Jul 8.8 19:57:26 10° WNW 20:08:14 35° SW 20:14:49 10° SSE visible
25 Jul 10.3 11:42:45 10° WSW 12:00:28 76° NNW 12:20:10 10° ENE visible
25 Jul 10.3 14:00:20 10° W 14:20:03 58° N 14:36:08 10° ENE visible
25 Jul 9.5 16:19:47 10° WNW 16:38:49 68° NNE 16:41:59 57° ENE visible
25 Jul 9.6 18:38:47 10° WNW 19:00:15 22° SE 19:02:22 10° SE visible
25 Jul 9.6 21:05:02 12° SW 21:05:02 12° SW 21:07:55 10° SSW visible
26 Jul 10.4 12:42:40 10° W 13:01:25 63° NNW 13:19:51 10° ENE visible
26 Jul 10.0 15:01:21 10° WNW 15:21:13 60° N 15:30:06 31° ENE visible
26 Jul 9.6 17:20:23 10° WNW 17:34:30 59° WNW 17:34:30 59° WNW visible
26 Jul 9.7 19:57:01 16° S 19:57:01 16° S 19:58:20 10° SSE visible
27 Jul 10.3 11:26:05 10° WSW 11:42:58 72° NNW 12:02:58 10° ENE visible
27 Jul 10.3 13:43:17 10° WNW 14:02:48 59° N 14:18:34 13° ENE visible
27 Jul 9.5 16:02:06 10° WNW 16:21:46 73° NNE 16:23:00 71° NE visible
27 Jul 10.5 18:21:05 10° WNW 18:27:25 26° WNW 18:27:25 26° WNW visible
28 Jul 10.4 12:25:55 10° W 12:44:04 61° N 13:02:58 10° ENE visible
28 Jul 10.0 14:43:59 10° WNW 15:04:02 63° NNE 15:11:40 40° ENE visible
28 Jul 9.8 17:02:35 10° WNW 17:16:06 53° WNW 17:16:06 53° WNW visible
28 Jul10.519:44:22SSE19:44:22SSE19:20:31WNWvisible
29 Jul 10.4 11:09:31 10° W 11:25:33 68° NNW 11:45:41 10° ENE visible
29 Jul 10.3 13:26:17 10° WNW 13:45:31 59° N 14:00:28 18° ENE visible
29 Jul 9.6 15:44:27 10° WNW 16:04:35 78° NNE 16:04:53 78° NNE visible
29 Jul 10.7 18:03:24 10° WNW 18:09:20 24° WNW 18:09:20 24° WNW visible
30 Jul 10.5 12:09:15 10° W 12:26:44 60° N 12:46:01 10° ENE visible
30 Jul 10.0 14:26:40 10° WNW 14:46:45 66° NNE 14:53:46 45° ENE visible
30 Jul 10.0 16:44:50 10° WNW 16:58:13 51° WNW 16:58:13 51° WNW visible
31 Jul 10.4 10:53:06 10° W 11:08:15 64° NNW 11:28:21 10° ENE visible
31 Jul 10.3 13:09:21 10° WNW 13:28:12 60° N 13:42:43 21° E visible
31 Jul 9.6 15:26:51 10° WNW 15:47:10 84° NNE 15:47:10 84° NNE visible
31 Jul 10.8 17:45:46 10° WNW 17:51:37 23° W 17:51:37 23° W visible
01 Aug 10.4 11:52:41 10° W 12:09:26 59° N 12:29:00 10° ENE visible
01 Aug 10.0 14:09:24 10° WNW 14:29:22 70° NNE 14:36:11 48° E visible
01 Aug 10.1 16:27:08 10° WNW 16:40:38 50° W 16:40:38 50° W visible
02 Aug 10.3 12:52:29 10° WNW 13:10:50 62° N 13:25:14 22° E visible
02 Aug 9.7 15:09:20 10° WNW 15:29:42 89° N 15:29:42 89° N visible
02 Aug 10.9 17:28:13 10° WNW 17:34:09 22° W 17:34:09 22° W visible
